Starlink 35110

operational
NORAD ID: 65539 Int'l Des: 2025-200 Owner: SPXS Country: US Constellation: starlink
LEOCIRCULARRETROGRADE

About Starlink 35110

Description loading...

Live Position

Loading 3D Globe...

Upcoming Passes

Altitude History

Altitude vs Time

uPlot chart will show altitude changes over time

Two-Line Element Set

1 65539U 25200V 25350.21082633 .00007733 00000-0 53947-3 0 9998
2 65539 97.6042 57.5707 0001048 92.3857 267.7490 15.05655731 16578
Epoch: Dec 16, 2025 • Age: 15 hours

Current Status

Altitude 577.3 km
Velocity 7.57 km/s
Sub-Earth Point -74.41°S, 175.82°E
Launch Date Sep 6, 2025
Age 0.2 years
Type internet

Technical Details

Classification Payload
Mass 575.00 kg
Dry Mass 530.00 kg
Total Mass 575.00 kg
Length 0.30 m
Diameter 4.10 m
Span 29.00 m
Shape Box + pan
Manufacturer SPXS
Bus Type Starlink V2MO
Phase Status In Orbit
Owner/State SPXS/US

Large Constellations

Loading constellations...